GFSMA_500_rhum_033.txt.gz
RH
49 47 22 43 33 31 51 54 20 20 28 21 26 28 26 28 34 32 34 33 33 35 39 50 52 52 47 39 36 37 35 25 19 17 17 17 18 19 25 27 24 24 24
21 14 16 16 16 16 19 22 24 27 27 42 36 30 25 25 30 33 32 34 35 35 36 36 36 39 36 36 34 30 27 27 25 22 19 17 18 18 17 17 21 26 26
16 18 17 18 18 20 22 24 31 33 32 33 33 31 29 31 35 34 35 37 37 39 39 38 39 38 33 31 32 31 29 24 21 22 22 19 19 18 18 17 16 16 21
18 19 22 22 22 20 22 22 25 24 26 22 22 27 32 39 54 55 53 51 46 42 40 37 33 32 31 30 31 31 31 29 26 22 20 19 19 18 17 16 17 16 15
24 26 26 27 28 29 30 30 31 29 28 25 22 28 40 48 60 60 61 55 48 42 39 38 35 31 27 25 23 22 22 23 25 25 23 21 18 18 18 16 16 16 16
26 28 30 32 35 37 38 38 36 34 32 28 26 39 54 55 59 56 57 53 49 48 45 40 37 34 31 28 24 21 19 18 18 17 19 21 19 16 14 15 15 16 16
24 28 32 38 41 40 41 44 41 38 38 29 27 41 54 57 58 59 57 53 46 40 34 29 26 22 20 19 19 19 20 20 19 18 15 14 16 17 15 14 13 12 13
26 27 32 37 41 42 46 46 43 44 37 30 32 46 50 57 63 59 52 49 46 41 40 41 35 29 23 17 15 13 12 10 11 14 16 16 14 13 13 14 12 12 12
24 27 32 39 44 47 49 46 44 46 38 37 44 50 42 40 32 43 44 37 32 29 27 23 21 16 8 6 4 4 3 3 3 3 3 6 12 14 14 12 12 12 11
23 26 29 30 32 42 69 65 46 48 44 47 51 53 60 58 50 34 26 20 20 34 44 41 21 10 5 5 5 4 4 4 4 3 3 3 3 3 6 11 13 12 10
22 23 24 25 28 38 86 59 48 48 55 58 56 60 67 65 37 32 23 32 46 50 26 19 10 6 7 7 7 7 6 6 6 6 5 5 4 4 3 2 4 7 11
22 23 26 29 32 84 71 49 52 58 61 55 61 65 63 47 46 33 40 54 34 22 15 9 8 9 10 9 10 10 10 11 10 10 11 11 10 8 6 4 3 2 3
26 27 29 54 88 63 55 57 63 70 64 71 76 72 66 63 65 74 59 31 24 19 12 8 12 12 12 14 17 23 31 29 23 22 19 18 17 16 14 10 6 4 3
31 33 38 74 85 69 58 65 77 70 67 73 75 75 81 90 82 74 44 28 17 8 7 11 14 16 21 23 30 40 43 38 34 31 24 20 17 15 14 15 14 11 6
38 46 53 88 100 97 61 81 79 81 81 85 78 84 86 76 87 66 44 14 7 8 9 12 14 25 30 31 39 39 35 31 27 23 19 18 17 15 13 12 12 12 11
71 63 62 63 63 66 73 77 76 77 72 65 64 76 95 96 87 35 15 8 9 12 12 15 17 22 28 33 40 38 30 24 23 22 20 20 19 18 17 16 15 14 12
100 82 68 60 76 79 71 77 69 76 64 67 97 100 100 86 41 22 12 9 12 15 16 14 22 32 41 37 31 29 26 24 22 22 22 20 21 21 20 19 16 13 14
93 68 60 73 74 72 72 77 71 92 100 100 100 100 96 59 23 13 11 14 17 19 18 15 36 46 34 32 29 27 25 23 23 24 27 35 38 42 40 39 32 24 17
62 78 72 69 79 78 90 100 98 92 100 100 100 96 66 24 16 11 13 15 23 23 28 36 36 33 30 30 30 28 24 26 32 43 45 51 53 52 45 39 35 30 25
78 85 80 78 70 87 100 100 97 100 99 98 97 88 38 18 12 14 18 19 33 38 42 34 33 32 29 29 28 26 27 41 55 60 55 50 45 46 39 27 16 15 15
70 70 82 76 75 74 99 100 99 99 100 98 91 53 28 12 14 18 21 30 42 44 39 35 35 30 26 26 26 28 39 51 79 63 46 58 40 28 21 18 15 14 14
93 100 100 100 100 100 100 100 100 100 99 71 35 20 12 14 21 24 27 32 45 40 39 36 30 23 25 26 27 39 56 71 69 52 45 20 17 16 17 15 16 16 16
93 96 100 100 100 100 100 100 100 97 78 38 22 12 14 20 29 30 33 42 50 40 38 33 26 22 24 26 33 65 71 68 52 50 19 26 21 26 24 26 29 34 28
100 100 100 100 100 100 100 100 98 71 34 17 13 14 21 29 35 36 51 67 56 50 44 33 26 22 24 28 36 70 75 66 58 30 18 46 50 61 57 46 65 79 68
100 100 100 100 100 100 100 84 44 21 16 14 17 23 30 37 38 51 71 67 66 58 48 36 27 22 25 30 41 79 83 61 62 20 30 67 66 76 82 61 78 92 98
100 99 100 100 100 97 56 28 14 13 14 20 27 30 40 44 49 75 71 72 73 63 50 37 26 23 28 33 45 84 84 62 64 21 34 67 71 73 100 92 76 100 100

GFSMA_500_rhum_036.txt.gz
RH
61 23 14 13 14 14 15 16 15 14 15 16 17 17 18 20 21 21 23 22 23 22 23 24 30 35 39 40 40 40 40 41 39 35 35 32 24 19 19 20 22 25 26
16 15 14 16 19 18 19 19 18 20 22 23 22 23 23 21 21 22 26 27 29 28 26 25 24 25 33 36 41 43 41 39 37 36 35 30 27 29 25 19 18 19 19
15 17 21 21 21 21 21 21 24 25 29 29 29 30 30 28 24 24 29 31 34 34 34 32 31 29 28 27 28 33 38 39 38 36 35 35 32 25 22 25 20 18 18
19 19 21 24 26 26 26 27 30 36 39 38 36 37 37 31 27 28 36 39 38 37 36 38 38 38 38 36 33 29 26 27 30 31 32 30 31 33 29 21 23 23 19
22 22 23 25 28 30 32 37 41 41 44 45 42 44 41 34 32 36 49 46 44 45 39 32 30 30 30 29 26 25 24 23 26 24 25 26 26 26 26 29 26 21 22
20 22 26 29 30 31 36 39 46 49 53 49 47 46 44 40 38 44 52 52 54 44 32 29 26 25 25 16 11 10 10 9 8 11 18 20 23 23 24 23 24 26 23
21 26 25 28 30 28 30 34 41 57 68 80 64 50 50 46 48 53 53 54 56 52 43 34 26 22 21 24 20 17 17 13 7 6 6 9 15 18 20 22 22 20 22
23 25 28 27 28 27 27 28 31 34 48 88 60 50 53 56 59 56 57 54 56 57 44 38 35 30 38 44 30 22 27 20 16 11 4 2 3 9 14 18 19 21 19
22 24 25 26 26 27 29 30 33 43 72 100 58 56 55 60 53 50 54 59 64 60 61 69 64 54 46 42 40 35 22 15 8 3 3 3 3 2 3 7 12 17 19
23 25 26 28 30 30 31 39 72 79 100 62 54 56 62 54 41 33 47 67 71 67 49 44 46 39 51 47 28 20 11 5 5 5 6 6 5 4 3 2 3 6 13
24 28 30 30 29 30 32 37 84 100 100 80 59 61 59 56 55 54 46 42 42 41 48 59 45 48 47 35 19 7 8 8 8 7 7 8 7 6 6 4 3 3 4
29 30 30 30 34 36 42 48 51 75 83 89 60 58 54 54 62 59 53 45 43 62 70 72 69 42 22 14 8 9 11 10 10 9 9 9 9 8 8 7 5 4 3
31 32 39 44 46 53 62 60 59 56 57 58 60 63 64 68 64 71 66 62 65 72 81 57 38 24 12 8 10 11 12 12 13 12 12 14 16 17 16 14 10 6 5
41 46 48 51 67 62 86 85 62 59 66 57 67 79 89 88 84 78 76 85 90 83 80 56 24 10 10 10 12 14 15 17 21 24 26 24 23 22 21 20 18 14 11
53 53 58 60 67 73 95 92 68 76 73 72 68 86 93 91 90 90 93 100 95 86 65 34 9 9 11 13 12 14 16 20 26 27 28 26 25 23 21 18 17 16 15
56 54 55 57 58 68 66 64 86 86 79 73 70 69 71 87 76 98 100 98 72 43 27 16 9 11 12 13 15 23 30 29 26 23 23 23 21 19 19 17 16 14 12
54 56 62 62 62 61 70 94 95 76 83 82 100 100 100 84 100 100 93 54 37 22 13 10 13 14 18 21 31 26 23 24 25 24 24 23 21 19 18 17 17 17 16
64 62 56 53 61 73 84 86 84 95 100 100 100 100 100 100 100 99 58 30 20 14 13 16 16 24 38 36 25 29 28 25 24 27 27 24 22 21 20 19 18 18 17
54 61 63 65 70 67 68 69 76 99 100 100 100 100 100 100 92 54 28 18 13 13 20 21 20 40 41 31 30 28 23 22 25 24 24 24 27 30 37 39 36 36 32
69 71 66 69 74 76 89 91 90 93 99 99 100 99 100 91 52 22 16 13 16 23 25 26 35 46 38 34 29 23 23 24 26 28 30 42 51 52 52 46 40 40 39
72 75 78 86 88 94 100 100 100 100 100 100 100 100 79 42 17 13 13 18 26 27 30 31 56 48 42 32 25 21 20 23 36 39 50 68 49 44 44 42 37 35 35
89 97 96 95 91 100 100 100 100 100 100 100 97 60 24 14 15 17 20 28 33 33 40 57 56 48 40 28 22 21 22 25 53 54 60 57 40 39 20 18 17 17 20
95 94 99 100 100 100 100 100 100 100 98 82 36 14 13 18 22 27 32 40 38 41 56 54 55 49 38 27 22 23 24 30 51 57 51 56 32 18 23 25 25 22 17
91 100 100 100 100 100 100 100 100 90 48 16 12 14 24 27 29 32 43 44 52 71 71 67 62 52 36 26 22 24 28 41 62 61 42 51 20 23 38 38 35 39 35
64 47 45 78 100 100 100 90 45 20 14 14 17 25 30 31 33 41 48 54 83 82 84 78 69 54 36 26 21 25 29 38 74 68 47 45 20 32 55 45 49 56 56
7 9 10 84 100 79 33 27 26 22 17 17 23 32 34 37 39 50 56 83 88 93 94 91 79 60 40 27 22 22 31 44 73 81 54 54 22 27 69 57 67 73 58

GFSMA_500_rhum_039.txt.gz
RH
55 50 27 14 15 16 17 17 18 19 18 17 17 15 12 12 14 15 17 22 24 24 21 19 19 22 24 31 37 36 38 43 39 43 40 36 37 38 36 34 29 22 21
29 14 14 18 20 17 18 19 18 18 17 16 14 12 11 13 17 21 23 30 32 29 25 24 26 29 29 30 33 37 39 42 40 34 33 38 40 39 37 36 33 30 28
14 15 17 16 16 17 19 19 20 22 21 21 19 18 19 19 21 23 24 30 37 34 34 32 31 27 25 24 25 28 28 28 29 30 32 36 35 34 34 35 34 32 30
15 16 17 19 18 18 20 19 19 20 21 22 25 25 25 27 34 32 34 40 42 41 39 32 24 18 17 18 16 14 14 14 13 15 20 28 33 35 33 33 32 32 31
17 19 19 18 18 18 20 20 21 23 23 24 25 32 34 38 57 40 43 46 48 48 45 37 28 26 24 22 22 19 16 14 13 12 12 10 10 16 25 26 20 29 29
18 17 18 18 19 20 21 22 24 25 27 28 31 46 50 69 83 48 48 51 56 55 44 33 28 25 23 25 25 22 24 22 20 14 11 9 9 9 9 12 21 20 24
18 18 20 20 21 21 23 25 28 28 30 34 45 66 65 94 64 53 55 61 61 53 47 38 36 36 36 35 39 44 46 39 30 18 13 12 10 9 7 6 7 10 20
20 21 21 20 19 24 28 29 31 33 34 35 50 90 96 100 95 79 70 72 68 64 60 58 62 64 55 44 40 40 35 34 31 26 25 25 21 19 14 10 6 5 6
22 21 20 23 28 31 33 34 35 37 44 54 56 61 96 93 85 87 71 67 73 76 78 74 76 69 58 51 54 50 55 50 46 41 38 31 27 17 5 5 3 3 3
20 21 26 31 33 35 39 44 46 52 67 73 72 60 61 62 63 59 65 73 86 85 85 80 81 77 70 63 63 67 71 60 49 47 39 23 13 6 5 4 4 3 3
21 26 33 37 40 46 48 51 70 62 67 66 94 90 62 60 63 58 53 58 68 82 88 82 73 59 48 49 49 58 67 69 43 28 16 8 6 6 7 7 7 6 5
26 30 35 41 50 50 59 65 80 61 54 66 89 100 93 68 61 65 67 75 68 72 60 57 48 41 51 73 78 71 46 33 20 10 8 8 7 7 9 9 8 8 6
44 44 51 54 56 55 80 55 56 58 61 65 70 72 68 76 82 78 86 94 72 80 96 86 61 83 81 49 38 35 28 17 10 10 10 8 8 8 10 12 13 11 8
54 70 47 52 62 60 54 62 56 54 84 61 55 63 70 94 100 100 100 100 100 100 98 96 100 87 57 36 25 17 14 12 12 11 9 10 11 12 13 16 20 20 16
72 74 82 72 55 55 56 55 56 60 61 68 72 80 99 100 100 100 100 100 86 85 91 97 84 54 31 21 16 14 14 14 13 11 13 21 23 22 21 22 22 20 18
86 91 86 74 66 59 60 63 67 71 72 76 86 96 100 100 100 100 96 91 100 100 94 81 44 22 15 14 14 15 16 16 17 22 24 19 20 19 18 18 18 17 15
85 94 93 76 62 58 71 74 86 90 99 100 100 100 94 93 100 87 98 100 100 96 70 31 16 14 14 16 18 19 17 22 27 22 22 23 20 18 18 21 22 20 19
99 98 92 99 88 82 84 85 89 100 100 92 97 100 100 90 90 100 100 100 94 60 24 14 15 16 20 25 22 20 27 32 26 26 24 19 17 19 21 23 23 22 19
100 100 80 80 93 90 92 94 95 88 77 92 100 99 93 96 100 100 95 61 26 15 16 18 22 27 31 29 24 30 34 33 30 24 18 17 20 22 23 24 23 22 21
100 89 87 100 88 90 83 84 74 81 89 82 96 93 98 100 92 53 20 13 14 20 23 27 35 36 36 38 39 37 40 33 26 20 17 19 21 27 40 45 49 49 42
86 89 87 100 98 93 92 89 88 77 39 46 69 100 67 25 16 13 13 15 24 28 31 38 45 45 62 57 52 49 40 29 23 18 20 30 29 48 50 44 38 37 36
85 86 86 78 100 100 88 16 8 9 16 82 80 30 27 21 15 14 19 28 30 32 38 46 59 71 68 62 57 45 34 25 22 16 23 52 36 54 39 39 33 22 18
86 100 100 100 77 22 5 6 7 11 26 28 31 28 25 23 18 20 31 33 34 37 46 51 78 70 72 68 59 42 29 23 21 20 27 70 60 52 36 34 19 20 24
78 82 68 11 4 5 6 7 10 22 37 33 31 29 31 22 22 29 36 38 42 49 55 73 77 75 78 75 66 42 27 22 22 22 26 71 61 53 46 27 18 26 34
45 7 4 4 5 7 7 9 20 35 43 36 34 35 31 20 25 37 41 42 52 58 77 84 88 83 88 86 70 47 29 22 26 26 26 58 63 55 52 24 19 25 48
6 4 5 6 7 7 11 20 32 43 45 36 37 38 26 21 30 43 46 47 61 76 94 97 93 88 88 85 74 55 38 24 22 30 25 68 73 51 62 32 21 25 58

GFSMA_500_rhum_045.txt.gz
RH
90 81 78 65 43 15 14 14 12 12 13 15 15 15 14 13 10 10 10 10 11 13 14 15 16 15 18 20 20 20 25 28 26 25 29 32 33 33 32 32 31 30 31
80 80 46 14 14 15 15 13 13 15 16 16 15 12 12 13 14 14 15 15 16 18 18 18 17 19 21 23 26 27 28 31 30 28 27 27 26 28 33 35 32 28 28
74 74 15 15 16 13 12 14 14 15 16 15 12 13 16 17 17 18 20 21 21 22 22 22 24 26 30 31 34 36 36 36 35 28 21 18 20 21 19 17 19 21 20
45 15 15 14 13 14 13 14 15 16 15 14 15 15 15 17 19 21 24 26 27 28 28 28 30 33 38 38 39 36 36 37 37 34 25 21 21 21 22 22 23 20 17
14 15 15 14 13 14 15 16 16 16 16 17 15 17 20 22 24 26 27 30 32 31 31 33 35 32 31 31 30 33 34 31 28 26 25 24 22 21 20 20 19 20 22
15 16 16 15 14 15 16 15 15 17 18 17 19 22 24 27 30 30 33 34 33 34 36 36 33 29 30 30 30 32 40 40 33 30 27 25 25 23 20 18 18 17 16
16 15 15 14 15 16 17 18 21 21 17 21 26 28 32 33 36 40 35 35 39 40 41 48 47 49 47 43 46 42 35 38 43 42 39 37 33 31 32 29 33 33 24
15 15 16 15 19 25 27 31 36 34 30 32 35 38 37 39 39 46 42 45 45 51 54 52 51 49 49 51 54 58 60 57 53 52 50 49 49 47 46 52 56 49 45
17 20 38 32 42 37 44 43 46 51 52 46 46 59 39 48 46 47 57 58 57 60 56 55 63 67 69 72 75 75 77 77 81 90 96 95 91 85 77 71 66 53 44
57 46 34 41 52 52 58 72 70 74 68 76 80 83 62 67 60 54 56 63 62 72 76 74 76 71 70 60 30 16 16 16 26 42 46 43 47 50 48 49 38 33 59
63 57 48 54 61 66 77 79 81 82 72 72 94 92 83 80 94 86 65 66 68 72 70 69 16 4 4 4 4 4 4 5 8 23 50 68 75 75 71 84 80 79 68
79 79 73 80 71 92 85 100 96 93 100 97 99 100 84 60 68 72 61 52 46 48 67 17 4 4 4 5 4 4 10 46 74 84 86 100 100 100 100 96 91 71 56
94 92 95 94 92 83 89 98 100 99 100 98 98 90 69 75 79 73 67 64 72 61 10 4 4 5 5 5 6 10 50 100 100 100 100 100 99 83 79 69 61 53 45
95 97 89 88 94 95 100 100 100 97 90 97 99 87 80 81 80 76 73 80 84 30 9 5 5 5 6 7 9 10 13 15 17 30 55 68 53 51 39 26 23 20 16
100 100 76 90 100 100 98 100 99 100 100 99 81 83 83 75 71 86 100 100 41 11 5 6 7 7 10 13 14 14 13 13 14 15 16 16 15 16 15 14 14 15 15
99 100 86 97 88 100 100 97 97 100 100 86 83 86 78 69 94 100 100 40 5 5 7 9 11 15 19 19 14 17 20 21 24 26 27 28 27 27 25 22 20 18 18
74 100 100 100 98 100 100 100 100 100 100 89 88 84 84 92 70 21 8 5 6 9 11 14 18 25 27 17 17 23 27 27 28 32 32 29 28 30 32 30 30 29 26
94 100 100 100 100 100 100 100 94 100 92 99 100 83 100 100 39 5 6 8 10 12 16 21 32 33 28 18 22 30 31 35 37 37 33 36 44 47 44 39 34 30 26
54 53 63 66 100 100 100 84 93 97 100 100 98 100 81 18 5 6 8 10 12 20 32 34 40 40 24 20 32 36 41 43 52 51 46 53 51 47 39 33 26 22 19
34 37 46 61 87 88 79 85 100 96 100 93 100 98 18 6 7 8 11 14 23 44 51 43 47 42 22 26 39 41 47 64 70 70 64 62 50 40 30 25 21 19 17
37 43 48 50 54 61 81 98 100 100 100 100 100 45 7 7 9 11 16 27 44 71 61 55 51 35 22 36 43 47 56 74 88 74 71 67 49 34 25 22 20 19 18
42 46 48 51 69 79 98 100 100 100 100 100 67 7 8 9 11 18 28 40 77 90 74 68 51 26 25 43 48 55 70 84 84 80 68 70 48 33 23 21 20 19 20
47 54 64 81 97 100 99 97 100 100 95 48 8 8 9 12 18 31 42 66 93 98 81 57 40 24 30 49 53 66 81 86 84 78 66 71 49 34 24 21 20 22 25
53 63 84 99 100 100 100 97 80 51 22 9 8 9 11 15 27 38 62 92 100 84 58 49 27 26 41 53 59 68 81 82 88 86 66 68 48 34 24 21 21 22 27
64 80 98 100 99 96 86 68 41 19 10 9 9 11 14 20 34 51 78 92 70 54 47 29 23 35 50 57 66 73 83 82 84 88 72 71 47 33 22 21 20 22 30
78 88 88 86 84 84 64 33 17 11 9 9 11 14 21 35 49 70 82 65 54 42 28 21 27 42 58 61 75 81 85 82 76 80 76 70 47 32 22 21 21 22 35

GFSMA_500_rhum_048.txt.gz
RH
61 73 82 74 68 61 25 14 15 14 13 13 14 14 13 12 11 11 11 11 13 12 12 14 17 18 18 17 18 17 20 23 24 25 25 27 31 33 32 29 28 30 30
93 74 75 58 20 14 15 16 13 13 14 14 14 14 12 11 11 11 13 15 16 18 19 20 19 20 21 23 25 25 27 28 30 32 32 32 32 31 31 32 29 23 24
86 84 84 30 14 15 14 13 13 14 14 13 12 10 11 10 12 17 20 21 22 23 23 24 24 25 26 27 29 32 32 28 28 29 30 32 34 33 33 26 20 21 22
78 86 78 16 15 14 13 13 14 14 13 12 10 11 10 13 20 24 25 27 29 28 28 28 27 26 22 18 16 17 20 22 20 21 24 25 30 33 36 33 26 27 25
45 30 15 15 14 13 14 15 14 12 11 10 12 16 17 22 25 29 30 33 36 35 34 31 29 24 21 21 21 19 18 20 21 21 20 21 24 26 27 29 30 28 28
16 16 15 14 14 13 14 13 13 14 17 14 14 26 33 34 33 34 34 32 32 34 32 30 26 25 28 30 29 31 31 31 30 28 30 30 28 27 26 25 23 23 23
17 18 16 15 14 14 14 14 27 16 15 22 29 34 38 39 40 43 58 47 34 36 35 35 35 33 31 26 30 31 25 25 27 30 38 42 42 38 36 33 31 29 25
19 18 15 14 14 27 36 26 34 21 27 38 50 50 44 36 54 66 70 53 43 43 40 39 40 40 42 47 35 27 18 15 11 6 6 6 7 8 22 44 47 43 41
19 18 17 29 46 41 38 36 32 33 44 62 75 81 64 69 64 51 65 73 61 53 52 53 54 54 59 63 58 48 30 6 5 6 7 7 8 8 7 6 6 12 21
53 62 63 69 70 55 48 38 44 53 59 56 60 83 86 86 94 76 61 72 61 62 63 62 59 56 59 68 66 39 7 7 9 8 6 5 4 4 5 6 6 5 5
56 53 56 64 70 56 42 48 65 79 71 83 92 90 75 98 100 95 88 68 59 58 56 60 65 62 72 57 14 8 9 9 7 5 4 6 7 20 85 74 63 96 100
49 71 84 78 69 56 50 72 63 66 79 98 96 99 79 93 100 84 74 68 74 76 68 58 55 30 10 7 9 7 8 6 5 6 10 11 11 12 25 88 100 97 91
51 74 85 92 84 82 79 63 49 83 92 95 91 82 97 100 92 89 83 86 84 74 70 75 61 10 6 7 7 7 7 7 10 15 14 11 12 13 13 13 14 34 89
76 82 88 87 93 93 99 82 82 100 98 98 82 85 97 81 76 78 83 90 83 85 90 60 16 7 6 7 8 8 10 15 23 18 12 14 17 19 18 18 16 13 12
94 98 96 95 100 90 98 100 99 100 100 89 97 99 97 78 86 92 88 88 95 97 62 12 7 7 8 9 9 12 21 29 29 14 16 20 22 23 24 25 25 24 20
97 98 96 100 100 96 69 77 100 99 100 100 100 100 95 84 100 100 100 100 100 90 51 9 8 8 10 13 16 26 35 42 23 17 24 24 27 31 32 32 29 27 26
90 92 100 100 98 82 84 78 66 100 100 100 100 88 79 100 100 100 100 100 100 67 15 8 8 11 13 21 33 46 49 43 18 21 28 30 33 37 42 44 42 39 36
94 98 100 91 82 80 61 47 81 100 99 77 69 96 100 100 100 100 100 100 96 20 9 8 11 17 26 38 59 61 56 30 19 30 32 34 44 45 45 47 47 46 42
77 54 55 60 44 43 40 47 51 60 58 72 86 100 100 100 100 100 100 98 19 9 9 11 16 28 40 70 72 60 48 22 24 35 36 42 53 46 52 54 47 37 33
25 28 30 31 34 42 51 52 55 60 72 90 99 100 100 100 100 100 68 14 9 9 12 22 27 40 68 87 68 57 34 21 36 41 41 49 54 54 53 55 41 28 25
16 20 25 32 42 52 53 61 70 91 100 100 100 100 100 100 79 37 15 10 10 13 22 33 42 67 86 71 60 41 23 25 46 49 52 68 55 58 54 52 39 25 23
18 21 27 34 41 50 61 73 90 100 100 100 100 100 88 65 30 16 11 10 14 26 33 46 68 83 62 53 42 26 23 38 52 60 56 69 65 61 59 53 40 27 22
22 24 29 36 48 61 71 81 94 96 98 99 96 81 48 19 11 10 11 14 20 32 41 50 71 68 56 46 29 22 29 48 58 62 63 71 68 63 62 53 38 30 22
26 30 37 50 64 69 79 86 87 81 79 79 59 33 18 12 12 12 15 19 30 40 41 47 54 52 48 34 24 23 38 58 65 71 70 68 71 68 65 49 35 29 22
35 41 51 64 73 76 77 76 76 73 61 45 32 23 14 12 13 15 21 27 35 49 51 46 44 43 35 28 22 26 51 62 70 80 76 72 71 70 67 48 34 27 22
47 55 66 70 74 71 66 65 61 57 51 39 26 18 13 12 19 22 24 27 34 58 53 44 39 32 26 24 23 35 63 67 75 87 77 76 75 67 64 49 32 26 21

GFSMA_500_rhum_051.txt.gz
RH
93 67 65 60 64 67 65 56 15 16 13 13 11 10 11 11 10 9 8 8 12 15 17 21 22 21 21 21 22 22 24 25 26 26 27 31 32 31 29 26 30 32 30
72 71 76 71 56 36 32 16 15 14 14 12 11 11 11 10 9 9 8 12 18 22 24 24 25 25 25 25 26 26 26 27 27 26 26 24 26 27 28 27 25 30 34
76 73 70 79 37 15 16 16 16 14 12 10 11 10 10 11 14 15 16 17 28 28 28 28 26 25 27 27 28 26 24 20 21 24 23 22 20 18 18 19 24 23 28
70 71 79 86 47 16 18 16 13 12 11 10 10 11 11 15 20 24 27 28 26 22 28 28 27 26 27 27 25 21 20 17 16 16 15 15 16 18 18 17 16 21 19
72 72 74 72 18 17 17 15 13 11 11 15 13 15 19 20 21 25 24 28 31 35 33 38 43 31 33 31 26 22 18 17 18 19 20 20 18 16 14 14 14 15 17
76 45 23 18 18 18 16 14 12 12 13 21 15 20 24 25 31 34 34 34 38 37 48 44 34 34 35 37 33 29 26 26 24 22 22 23 22 21 19 15 12 14 20
26 18 20 21 18 16 14 14 18 33 31 26 20 28 24 35 40 55 58 58 61 60 58 50 54 45 43 39 33 28 28 34 32 31 27 24 22 20 19 16 14 12 10
20 21 21 19 18 16 15 42 47 38 23 17 31 42 50 39 14 43 84 53 53 82 75 71 55 48 49 45 38 32 32 38 36 29 24 18 16 16 17 17 15 13 12
24 24 26 26 36 37 48 60 62 40 27 38 52 66 64 68 62 50 22 67 63 75 84 75 59 50 46 52 56 48 49 44 38 26 15 16 19 18 16 14 11 9 8
41 43 48 61 59 54 54 61 51 44 39 38 39 33 37 46 72 71 48 32 42 81 65 63 58 60 62 57 58 49 57 50 40 28 20 19 18 15 11 8 6 4 4
42 44 50 53 62 72 81 81 71 68 73 62 52 46 67 79 76 89 88 84 74 63 63 46 58 64 63 62 68 58 68 58 43 22 15 16 13 9 6 5 6 8 10
44 34 33 48 70 89 90 87 74 66 67 61 79 90 88 86 92 84 77 91 97 99 84 70 75 82 81 88 84 76 70 49 29 14 12 10 7 6 8 13 12 11 11
49 47 50 69 81 90 94 90 80 73 78 71 84 97 86 96 76 93 98 100 100 79 79 93 89 90 96 96 92 83 61 21 13 10 9 8 8 14 20 14 12 15 17
68 78 81 86 98 95 90 87 99 96 100 100 75 56 88 67 93 100 100 100 81 68 94 100 100 100 94 84 80 66 21 10 10 10 11 14 26 28 17 15 19 20 19
94 92 98 92 94 91 85 95 96 98 100 97 58 61 76 100 100 100 100 87 64 89 100 100 100 100 97 84 55 19 10 10 11 14 19 36 36 26 16 23 25 26 26
94 92 81 79 82 88 98 99 100 95 79 89 91 51 71 93 100 99 75 66 85 100 98 100 100 97 69 23 12 10 11 13 17 25 47 47 39 19 23 29 32 34 33
72 51 45 83 67 58 73 88 94 77 89 40 42 51 62 75 66 76 91 98 100 100 100 98 92 48 20 12 11 11 15 19 22 47 59 46 26 20 31 35 42 42 42
27 22 28 44 98 98 60 96 100 85 47 42 100 90 100 81 92 100 100 100 100 100 95 86 37 13 10 13 15 17 22 32 51 59 50 32 20 26 36 38 43 45 46
15 9 10 11 12 21 18 22 29 35 38 39 82 94 77 95 100 100 99 95 97 92 55 20 16 12 12 16 20 25 26 44 56 48 37 24 22 38 44 48 45 45 49
10 12 13 14 15 16 21 25 29 35 50 62 82 81 98 99 98 96 96 92 61 29 19 16 14 14 16 25 31 34 36 54 45 42 29 20 27 40 45 50 50 52 55
13 14 16 17 19 22 25 28 32 39 52 63 78 86 82 83 85 85 62 36 24 20 16 14 14 20 26 38 50 48 51 47 45 34 25 24 37 46 49 47 45 42 46
13 15 18 21 25 28 31 35 40 50 62 72 78 75 70 67 58 50 37 28 26 20 15 20 27 32 47 50 58 56 48 43 36 29 23 29 51 53 58 54 50 48 46
16 19 26 31 36 39 42 46 50 63 71 76 63 53 55 62 58 51 46 39 24 15 18 27 27 34 43 63 65 54 47 40 29 26 23 35 62 60 66 57 53 51 47
21 29 38 46 50 49 54 57 65 72 76 68 54 52 58 62 54 46 36 22 13 10 14 16 19 25 36 41 40 40 35 30 25 25 31 46 68 70 71 61 53 52 46
35 46 55 57 58 60 66 69 72 73 64 56 51 54 60 58 49 38 23 12 10 10 17 25 22 23 24 28 32 34 31 26 23 28 56 60 75 76 73 63 56 53 45
46 52 58 62 63 67 65 72 74 67 59 53 51 57 58 52 40 24 11 9 9 11 17 21 25 24 25 28 29 30 27 24 22 34 74 68 86 82 68 69 60 56 44